Flag for Germany

Past Weather in Wedel, Schleswig-Holstein, Germany — Yesterday and Last 2 Weeks

Now
79 °F

Sunny.


Feels Like: 79 °F
Forecast: 83 / 60 °F
Wind: 14 mph from Southwest

Location: Hamburg-Finkenwerder

Current Time: Aug 5, 2020 at 1:32:02 pm

Latest Report: Aug 5, 2020 at 12:50 pm


Visibility: 10 mi

Pressure: 29.98 "Hg

Humidity: 32%

Dew Point: 46 °F

Location of WedelLocation

Past Weather in Wedel — Graph

°F

Wedel Temperature Yesterday

Maximum temperature yesterday: 68 °F (at 1:20 pm)
Minimum temperature yesterday: 55 °F (at 3:50 am)
Average temperature yesterday: 62 °F

High & Low Weather Summary for the Past Weeks

 TemperatureHumidityPressure
High82 °F (Aug 1, 12:20 pm)100% (Jul 25, 5:20 am)30.21 "Hg (Jul 25, 5:20 am)
Low50 °F (Jul 22, 2:50 am)36% (Aug 5, 11:50 am)29.65 "Hg (Jul 28, 2:50 am)
Average64 °F71%29.96 "Hg
* Reported Jul 21 12:20 pm — Aug 5 12:20 pm, Wedel. Weather by CustomWeather, © 2020

Note: Actual official high and low records may vary slightly from our data, if they occured in-between our weather recording intervals... More about our weather records

Wedel Weather History for the Previous 24 Hours

Scroll right to see more
 ConditionsComfort  
Time TempWeatherWind HumidityBarometerVisibility
12:20 pm
Wed, Aug 5
77 °FPassing clouds.16 mph36%30.01 "HgN/A
11:50 am75 °FSunny.16 mph36%30.01 "Hg10 mi
11:20 am75 °FPassing clouds.14 mph39%30.01 "HgN/A
10:50 am73 °FPassing clouds.15 mph38%30.01 "HgN/A
10:20 am72 °FSunny.13 mph44%30.01 "Hg10 mi
9:20 am68 °FSunny.13 mph49%30.01 "Hg10 mi
8:50 am68 °FSunny.12 mph53%30.01 "Hg10 mi
8:20 am66 °FPassing clouds.5 mph60%30.01 "HgN/A
7:50 am63 °FSunny.2 mph64%30.01 "Hg10 mi
7:20 am61 °FSunny.2 mph68%30.01 "Hg10 mi
6:50 am61 °FSunny.2 mph68%30.01 "Hg10 mi
6:20 am61 °FSunny.2 mph68%29.98 "Hg10 mi
5:50 am59 °FPartly sunny.2 mph72%29.98 "HgN/A
5:20 am61 °FOvercast.2 mph68%29.98 "HgN/A
4:50 am59 °FOvercast.2 mph72%29.98 "HgN/A
4:20 am59 °FOvercast.3 mph72%29.98 "HgN/A
3:50 am59 °FMostly cloudy.3 mph72%30.01 "HgN/A
3:20 am59 °FMostly cloudy.2 mph72%30.01 "HgN/A
2:50 am57 °FMostly cloudy.2 mph77%30.01 "HgN/A
1:20 am57 °FMostly cloudy.1 mph82%30.01 "HgN/A
12:50 am57 °FOvercast.No wind82%30.01 "HgN/A
12:20 am57 °FOvercast.1 mph82%30.01 "HgN/A
11:50 pm
Tue, Aug 4
57 °FPassing clouds.3 mph82%30.01 "HgN/A
11:20 pm55 °FPassing clouds.2 mph77%30.01 "HgN/A
10:50 pm63 °FClear.5 mph59%30.04 "HgN/A
10:20 pm63 °FClear.3 mph59%30.04 "HgN/A
9:50 pm63 °FClear.3 mph59%30.01 "Hg6 mi
9:20 pm64 °FClear.6 mph60%30.01 "HgN/A
8:50 pm64 °FSunny.7 mph60%30.01 "HgN/A
8:20 pm66 °FSunny.7 mph56%30.01 "HgN/A
7:50 pm66 °FPassing clouds.8 mph56%30.01 "HgN/A
7:20 pm68 °FPassing clouds.6 mph53%30.01 "HgN/A
6:50 pm68 °FPassing clouds.7 mph56%29.98 "HgN/A
6:20 pm68 °FPassing clouds.9 mph56%29.98 "HgN/A
5:50 pm68 °FPassing clouds.10 mph53%29.98 "HgN/A
5:20 pm68 °FPassing clouds.8 mph53%29.98 "HgN/A
4:50 pm68 °FPassing clouds.9 mph53%29.98 "HgN/A
4:20 pm68 °FPassing clouds.10 mph56%30.01 "HgN/A
3:20 pm68 °FPassing clouds.14 mph53%29.98 "HgN/A
2:50 pm68 °FPassing clouds.12 mph56%30.01 "HgN/A
2:20 pm66 °FPassing clouds.13 mph60%29.98 "HgN/A
1:50 pm66 °FPassing clouds.10 mph56%29.98 "HgN/A
1:20 pm68 °FPassing clouds.9 mph53%29.98 "HgN/A
Weather by CustomWeather, © 2020

See weather overview